Location: Newark
(47.4000°N, 7.5833°E)
Time: 14:36:44
(UTC+00:00)

N. Korean satellite - Pass Details

Date: 01 February 2020
Orbit: 456 x 505 km, 97.2° (Epoch: 29 February)

Event Time Altitude Azimuth Distance (km) Brightness Sun altitude
Rises 05:50:12 0° 6° (N) 2,564 10.2 -11.4°
Reaches altitude 10° 05:52:19 10° 360° (N) 1,686 9.2 -11.1°
Maximum altitude 05:55:46 43° 288° (WNW) 700 6.9 -10.5°
Drops below altitude 10° 05:59:15 10° 216° (SW) 1,696 9.1 -9.9°
Sets 06:01:23 0° 209° (SSW) 2,581 10.1 -9.6°
